Wind_Speed
16 15 14 14 14 13 11 11 11 12 13 11 10 9 9 10 12 13 13 14 15 15 15 15 14 14 13 12 10 6 3 2 3 4 5 6 7 7 9 10 10 10 10 9
18 17 17 17 15 14 13 13 13 14 15 13 12 11 10 11 12 12 13 14 15 15 15 14 14 13 13 11 9 5 2 3 3 3 4 5 6 7 8 9 10 10 9 9
20 20 20 18 17 15 14 15 15 16 16 15 15 12 11 11 12 12 13 14 14 15 15 14 13 13 12 10 7 4 2 3 4 4 4 5 6 7 8 9 10 11 11 10
23 22 21 20 18 17 16 17 17 17 17 16 16 14 12 12 12 12 13 14 14 14 14 13 12 11 10 8 6 3 1 2 4 5 5 5 6 6 8 8 9 10 11 11
23 23 22 20 19 18 17 18 18 17 17 17 17 16 13 13 13 11 13 13 14 14 14 13 12 11 9 7 5 2 0 1 3 5 5 6 6 7 7 8 9 11 11 11
25 24 22 21 21 19 19 19 18 18 18 18 17 16 14 13 11 11 11 12 13 13 13 12 11 10 7 6 4 2 1 1 2 3 4 5 6 7 8 9 10 10 11 11
26 25 23 22 22 21 20 19 19 19 18 18 17 16 14 12 11 11 11 11 13 12 12 11 10 10 7 4 3 2 1 1 2 3 3 4 6 7 8 10 10 10 11 11
26 25 24 23 22 22 21 20 20 19 19 17 17 16 13 12 11 11 11 11 11 11 10 10 9 9 7 5 3 2 1 0 1 2 3 3 5 6 7 9 10 11 12 12
27 26 25 24 23 23 22 21 20 20 19 17 16 14 13 12 10 10 10 11 11 10 10 9 8 7 6 5 3 2 1 1 1 1 2 3 3 5 6 8 9 10 11 12
28 27 26 25 25 24 23 22 21 20 19 17 16 14 11 11 11 10 10 10 10 10 10 9 7 7 6 5 4 3 2 3 3 3 4 4 5 5 6 8 9 10 11 12
28 28 28 27 26 25 24 23 22 21 20 18 16 13 11 11 11 10 10 10 10 10 9 9 8 7 6 5 4 4 4 4 5 5 5 5 6 6 7 8 9 10 11 12
29 29 28 28 28 27 25 23 22 20 18 17 16 13 12 12 12 11 10 10 10 9 9 9 9 7 6 5 5 5 5 6 6 6 6 6 6 7 7 7 8 9 10 12
30 30 28 28 28 27 25 23 22 21 20 18 17 14 13 13 12 11 10 10 9 9 10 10 11 9 7 6 6 6 7 7 7 7 7 7 8 8 8 8 9 10 11 12
30 29 28 27 25 26 25 24 23 22 21 19 17 15 14 14 13 13 13 12 10 10 11 10 10 10 9 8 7 7 8 7 8 8 7 8 8 9 9 10 10 10 11 12
29 28 27 27 26 27 26 25 24 23 22 21 19 17 15 15 15 14 14 14 12 11 11 11 11 11 10 9 9 8 9 9 9 8 8 9 9 10 10 11 11 12 12 13
29 28 27 27 27 27 27 26 25 24 24 23 21 20 17 17 17 16 15 14 13 12 12 12 12 12 12 11 10 10 10 11 11 11 10 10 11 11 11 12 13 14 14 15
30 29 27 27 27 28 29 28 27 25 24 24 23 21 20 19 18 17 16 15 14 13 13 14 13 12 11 11 10 10 11 11 12 12 12 12 12 12 13 14 15 16 16 16
33 32 30 29 28 30 28 28 28 27 26 25 24 23 22 20 19 18 17 17 16 16 15 14 13 12 13 13 12 12 12 13 13 14 13 13 13 14 15 15 16 16 17 17
36 35 33 32 32 31 30 28 28 28 28 27 25 23 23 22 21 20 19 18 18 17 15 15 15 15 14 14 13 13 14 14 14 15 16 15 15 16 16 17 17 17 18 18
39 38 38 37 35 35 32 30 30 29 29 27 26 25 24 24 23 22 21 20 20 18 17 16 16 16 16 16 15 15 16 15 16 17 17 17 17 17 18 18 19 19 19 20
41 41 41 40 39 37 34 32 31 31 29 27 27 26 26 25 24 23 23 22 21 20 19 18 18 18 18 17 17 17 17 17 17 18 18 18 19 19 20 20 20 20 21 22
42 42 42 42 41 40 36 34 32 31 29 28 27 26 26 25 25 25 25 24 22 21 21 21 21 21 20 19 20 19 18 19 19 20 20 21 21 22 22 22 22 22 23 23
44 44 44 43 42 40 38 37 35 33 31 30 28 27 27 27 27 28 27 26 25 24 24 24 24 24 23 23 22 22 21 21 21 22 22 23 23 24 24 24 23 23 23 24
42 43 43 43 43 42 40 39 37 35 33 31 30 29 28 28 28 27 27 27 27 26 25 25 25 24 24 24 23 22 22 22 23 24 24 24 24 25 25 24 24 24 25 26
41 41 41 41 42 41 40 39 37 36 34 33 31 31 31 30 29 29 28 28 27 28 28 27 26 25 24 22 22 22 22 23 24 25 25 25 25 25 25 25 25 26 26 27
39 39 40 40 40 40 40 39 38 37 35 34 33 32 32 32 31 31 31 30 29 29 28 28 27 26 25 25 24 23 24 25 25 26 26 26 27 27 27 27 27 27 28 29
Wind_Direction
238 240 240 240 243 248 256 264 270 272 279 286 292 300 308 314 320 328 337 342 342 341 343 343 339 337 335 337 336 334 330 261 239 237 236 210 208 206 209 215 215 218 225 227
237 238 238 241 245 251 257 262 266 268 275 283 290 298 304 308 317 324 332 335 334 337 341 342 341 341 340 336 329 318 270 239 218 221 224 200 203 208 214 220 220 218 223 227
236 237 239 242 245 251 256 260 262 264 272 281 290 295 299 304 314 319 324 326 327 331 336 338 336 334 336 334 326 306 246 213 206 207 208 202 202 206 211 218 220 216 218 221
235 237 239 242 246 251 254 259 262 265 269 277 287 293 299 304 311 313 317 321 324 326 331 333 332 329 329 331 333 319 263 199 201 203 216 216 207 209 214 217 217 217 220 224
235 237 238 239 243 247 252 258 262 266 268 271 280 289 300 307 309 309 313 318 323 324 330 331 332 329 329 330 337 2 297 213 211 209 218 220 213 215 220 222 222 221 222 225
234 236 236 237 241 245 250 257 261 265 268 269 276 282 293 300 302 306 311 316 322 322 328 331 334 336 336 337 357 19 43 160 186 195 207 216 220 223 228 229 229 229 229 228
233 235 235 236 240 245 250 256 260 263 266 268 272 276 286 293 295 300 309 315 321 321 324 326 326 330 332 342 359 17 58 101 167 197 211 225 227 233 239 234 232 234 233 232
231 232 234 235 239 245 250 255 259 262 264 265 267 272 282 291 291 296 306 311 318 323 328 333 331 333 334 334 342 359 24 73 193 204 210 231 241 249 249 242 237 237 240 241
230 230 232 233 236 241 246 250 256 260 263 263 264 271 276 284 288 295 302 304 312 321 324 330 329 333 331 328 328 344 346 330 281 234 232 254 261 262 259 252 243 240 243 243
227 227 230 232 235 239 242 246 251 257 261 262 264 269 274 277 286 292 301 307 309 320 322 326 324 326 322 315 314 309 303 297 291 276 272 264 265 275 271 262 251 248 250 248
229 227 228 232 235 240 243 247 251 255 260 263 264 268 272 277 282 288 298 306 309 318 329 336 330 325 317 308 310 309 297 290 283 278 277 275 272 275 275 271 259 253 250 249
229 229 228 231 234 237 241 244 247 251 256 261 264 264 267 274 280 287 294 302 308 312 319 330 329 324 318 312 309 306 299 288 283 285 282 278 278 276 280 278 267 260 256 253
229 230 229 230 233 237 240 242 244 248 253 258 262 263 263 268 273 281 288 296 300 310 317 322 322 317 311 309 302 296 299 290 284 285 280 275 273 275 279 280 272 266 263 261
230 232 232 232 235 237 239 241 244 247 252 258 263 265 263 265 269 276 285 290 292 302 310 319 322 321 315 304 297 294 298 300 295 285 279 274 272 273 274 277 278 278 272 267
232 232 231 229 229 233 237 240 243 246 251 256 261 264 265 266 268 273 280 285 286 294 301 308 314 317 318 307 295 295 296 288 292 283 276 275 275 275 277 279 278 280 277 272
235 235 233 231 229 232 236 239 243 247 250 255 259 263 267 268 269 274 279 283 287 293 296 298 307 309 312 308 297 293 291 289 289 285 278 276 274 278 281 281 278 278 277 276
237 238 237 236 233 234 236 240 245 250 253 256 261 264 267 270 272 276 276 280 286 291 294 297 301 301 305 305 305 296 292 292 290 286 282 281 280 280 281 282 282 280 278 277
238 241 241 240 238 240 241 242 246 250 255 258 261 262 264 268 271 273 275 277 280 282 288 294 297 297 298 297 296 294 292 292 290 286 282 282 282 283 282 284 285 283 280 277
237 239 242 243 243 245 245 246 249 252 254 257 260 262 262 264 268 273 276 276 279 282 285 289 292 295 298 294 292 290 288 288 289 288 284 281 282 284 283 283 284 284 282 281
236 238 241 244 246 249 250 251 253 254 255 256 258 260 262 263 267 271 272 272 275 280 283 285 287 290 293 292 290 288 285 285 286 288 288 285 283 283 283 283 283 284 285 284
237 239 242 245 248 250 251 252 254 255 257 257 258 260 261 261 265 267 267 268 271 273 277 280 282 286 289 290 289 289 284 284 285 286 287 287 286 284 284 284 284 284 284 284
237 239 242 245 247 249 251 252 253 256 257 258 258 258 259 260 262 263 265 268 269 271 276 281 280 283 284 285 287 285 282 282 283 285 287 286 286 285 285 284 283 282 283 283
238 239 242 244 247 249 250 252 253 254 255 257 256 257 259 260 261 263 265 266 266 270 275 280 283 283 283 283 284 282 280 279 281 283 284 284 284 284 283 283 282 281 281 282
238 240 242 244 246 248 250 252 253 254 255 256 255 256 258 260 261 264 266 267 270 270 274 279 280 280 282 282 278 277 276 278 280 282 282 282 282 282 281 280 281 281 282 282
239 239 241 243 245 247 249 251 252 254 255 254 254 256 257 259 260 261 264 266 268 270 274 275 275 275 278 277 276 276 277 278 280 280 280 280 280 280 280 280 279 280 280 282
239 240 241 243 244 246 248 249 250 251 252 253 253 255 255 257 258 260 262 264 266 270 275 274 273 272 275 273 275 277 278 279 280 280 280 280 279 278 278 277 277 278 279 280
Height
5890 5893 5893 5894 5895 5896 5898 5899 5899 5899 5898 5899 5899 5899 5898 5898 5896 5895 5894 5892 5890 5887 5884 5882 5879 5877 5874 5871 5870 5868 5868 5870 5870 5871 5872 5873 5874 5876 5878 5880 5881 5883 5885 5886
5888 5890 5891 5891 5893 5895 5896 5897 5897 5897 5896 5897 5897 5897 5897 5896 5895 5894 5893 5890 5888 5886 5883 5880 5878 5875 5873 5870 5869 5868 5868 5869 5869 5870 5871 5872 5874 5875 5877 5879 5880 5882 5884 5885
5884 5887 5887 5889 5891 5893 5894 5895 5895 5895 5895 5895 5895 5896 5895 5895 5894 5893 5891 5889 5886 5884 5881 5879 5876 5874 5872 5869 5868 5867 5867 5868 5869 5870 5871 5872 5873 5875 5876 5878 5879 5881 5883 5884
5880 5882 5884 5886 5888 5890 5891 5891 5892 5892 5892 5893 5894 5894 5894 5893 5892 5891 5889 5887 5885 5883 5880 5878 5875 5873 5870 5868 5867 5867 5867 5867 5868 5869 5871 5872 5873 5874 5875 5877 5878 5880 5881 5883
5876 5878 5881 5883 5885 5887 5888 5888 5889 5890 5890 5891 5891 5891 5893 5891 5890 5889 5887 5886 5884 5881 5879 5877 5874 5871 5869 5868 5866 5866 5866 5867 5867 5869 5870 5871 5872 5873 5874 5875 5877 5878 5879 5881
5872 5874 5877 5880 5881 5883 5885 5886 5887 5887 5888 5889 5889 5889 5890 5889 5888 5887 5886 5884 5882 5880 5878 5876 5874 5871 5869 5867 5866 5866 5866 5866 5867 5868 5869 5870 5871 5872 5873 5874 5875 5876 5878 5879
5868 5871 5874 5876 5878 5880 5882 5884 5884 5885 5885 5886 5887 5887 5888 5887 5886 5885 5884 5882 5881 5879 5877 5875 5873 5871 5868 5867 5866 5866 5866 5866 5867 5867 5868 5869 5870 5871 5872 5872 5874 5875 5876 5878
5863 5867 5870 5872 5875 5876 5878 5880 5882 5882 5883 5883 5884 5884 5886 5885 5884 5883 5882 5880 5879 5877 5875 5874 5872 5870 5868 5867 5866 5866 5866 5866 5867 5867 5867 5868 5869 5870 5870 5871 5872 5874 5875 5876
5859 5863 5865 5868 5870 5872 5874 5876 5878 5879 5879 5880 5881 5882 5883 5882 5882 5881 5880 5879 5878 5876 5874 5872 5871 5870 5868 5867 5866 5866 5866 5866 5866 5867 5867 5868 5868 5868 5869 5870 5871 5872 5873 5874
5853 5857 5860 5863 5865 5867 5870 5872 5873 5875 5876 5877 5878 5879 5881 5880 5880 5879 5878 5877 5876 5874 5873 5871 5870 5869 5868 5867 5866 5865 5865 5866 5866 5866 5867 5867 5867 5867 5867 5868 5869 5870 5870 5871
5848 5852 5856 5858 5861 5863 5866 5868 5870 5871 5873 5874 5875 5879 5878 5878 5878 5877 5877 5875 5874 5873 5872 5870 5869 5868 5867 5866 5866 5865 5865 5865 5865 5865 5865 5865 5866 5866 5866 5866 5867 5867 5868 5869
5843 5847 5850 5854 5856 5858 5861 5864 5866 5868 5870 5871 5872 5877 5875 5875 5875 5875 5875 5874 5873 5872 5871 5869 5868 5867 5866 5866 5865 5865 5864 5864 5864 5864 5863 5863 5864 5864 5864 5864 5865 5865 5865 5866
5838 5842 5846 5849 5853 5855 5857 5860 5862 5865 5866 5867 5869 5874 5872 5872 5872 5873 5873 5872 5871 5870 5869 5868 5867 5866 5865 5865 5864 5864 5863 5863 5862 5861 5861 5861 5862 5862 5862 5862 5862 5863 5863 5863
5833 5837 5842 5847 5849 5851 5853 5856 5858 5861 5862 5864 5866 5868 5869 5869 5870 5870 5870 5870 5869 5868 5867 5866 5865 5864 5864 5863 5863 5862 5862 5861 5860 5860 5859 5859 5859 5859 5860 5860 5860 5860 5860 5860
5828 5832 5837 5841 5844 5846 5849 5851 5854 5856 5858 5860 5862 5863 5865 5866 5866 5867 5867 5867 5867 5866 5866 5865 5864 5863 5862 5861 5861 5860 5860 5860 5859 5858 5858 5857 5857 5857 5857 5858 5858 5858 5857 5857
5823 5827 5831 5835 5839 5841 5844 5847 5849 5851 5854 5855 5857 5860 5861 5862 5863 5863 5864 5864 5864 5864 5863 5863 5862 5861 5860 5859 5859 5858 5858 5857 5857 5856 5855 5855 5855 5855 5855 5855 5855 5854 5854 5853
5818 5822 5826 5830 5833 5836 5839 5842 5844 5847 5849 5852 5853 5856 5857 5858 5859 5860 5861 5861 5861 5861 5861 5860 5859 5858 5857 5857 5856 5856 5856 5855 5854 5854 5853 5852 5852 5852 5852 5852 5851 5851 5850 5849
5812 5816 5820 5823 5828 5830 5836 5837 5839 5842 5844 5847 5849 5851 5852 5854 5855 5856 5857 5857 5858 5858 5857 5856 5856 5855 5854 5854 5854 5853 5853 5852 5851 5851 5850 5850 5849 5849 5848 5848 5847 5846 5846 5845
5806 5810 5813 5817 5820 5824 5828 5831 5834 5837 5839 5841 5843 5845 5847 5848 5850 5851 5852 5852 5853 5853 5853 5853 5852 5852 5851 5850 5850 5850 5849 5849 5848 5847 5847 5846 5846 5845 5844 5843 5843 5842 5841 5841
5798 5802 5806 5810 5813 5817 5822 5825 5827 5831 5833 5836 5837 5839 5841 5843 5845 5847 5847 5847 5848 5848 5849 5848 5848 5847 5847 5847 5846 5846 5845 5845 5844 5844 5843 5842 5841 5841 5840 5839 5838 5837 5837 5836
5791 5794 5798 5802 5805 5809 5814 5818 5821 5825 5828 5830 5831 5833 5835 5837 5839 5841 5841 5842 5843 5843 5843 5843 5843 5843 5843 5842 5841 5840 5840 5840 5839 5839 5838 5838 5837 5836 5835 5834 5833 5832 5831 5830
5782 5786 5790 5794 5798 5804 5807 5811 5815 5817 5820 5822 5824 5826 5828 5830 5832 5834 5835 5836 5837 5837 5837 5837 5837 5837 5837 5836 5835 5834 5834 5834 5834 5833 5833 5832 5831 5830 5829 5828 5827 5826 5825 5824
5773 5778 5782 5787 5792 5795 5799 5803 5806 5809 5812 5815 5818 5820 5822 5823 5825 5827 5828 5829 5830 5831 5831 5831 5831 5830 5830 5830 5829 5828 5828 5828 5828 5828 5827 5826 5825 5824 5823 5822 5821 5820 5819 5818
5764 5769 5773 5777 5782 5786 5790 5794 5798 5801 5805 5808 5810 5813 5815 5816 5818 5819 5821 5822 5823 5824 5824 5824 5824 5824 5823 5822 5822 5822 5822 5822 5822 5821 5821 5820 5819 5817 5816 5815 5814 5813 5812 5811
5755 5760 5764 5768 5773 5777 5782 5785 5790 5793 5796 5799 5802 5804 5807 5809 5810 5812 5813 5814 5815 5816 5817 5817 5817 5817 5817 5816 5816 5815 5815 5815 5815 5814 5814 5813 5812 5811 5809 5808 5807 5806 5805 5804
5747 5751 5756 5760 5765 5769 5773 5777 5781 5784 5788 5791 5794 5796 5798 5800 5802 5804 5805 5806 5807 5809 5809 5809 5809 5810 5810 5809 5809 5808 5808 5808 5807 5806 5806 5805 5804 5803 5802 5801 5800 5798 5797 5796